Regional Weather Roundup
Issued by NWS

Home | Current Version | Previous Version | Text Only | Print | Product List | Glossary On
Versions: 1 2 3 4 5 6 7 8 9 10 11 12 13 14 15 16 17 18 19 20 21 22 23 24 25 26 27 28 29 30 31 32 33 34 35 36 37 38 39 40 41 42 43 44 45 46 47 48 49 50
000
ASUS43 KDTX 221410
RWRMI
MICHIGAN HOURLY REGIONAL WEATHER ROUNDUP
NATIONAL WEATHER SERVICE DETROIT/PONTIAC MI
1000 AM EDT SUN APR 22 2018

NOTE: "FAIR" INDICATES FEW OR NO CLOUDS BELOW 12,000 FEET WITH NO
SIGNIFICANT WEATHER AND/OR OBSTRUCTION TO VISIBILITY.

MIZ047>049-052>055-059>063-066>070-074>076-081>083-221500-
SOUTHEAST LOWER MICHIGAN

CITY           SKY/WX    TMP DP  RH WIND       PRES   REMARKS
ADRIAN         FAIR      49  26  41 E10       30.42R
ALMA           FAIR      50  32  50 S3        30.43S
ANN ARBOR      FAIR      51  27  39 NE7       30.41S
BAD AXE        FAIR      51  18  26 CALM      30.45S
CARO           FAIR      52  22  31 CALM      30.44S
DETROIT CITY   FAIR      51  25  36 NE8       30.44S
DETROIT        FAIR      52  26  36 E8        30.43S
FLINT          FAIR      52  25  35 CALM      30.44R
GROSSE ILE     FAIR      49  28  44 NE8       30.42S
HILLSDALE      FAIR      50  23  34 E13G18    30.39R
HOWELL         FAIR      52  24  33 E9        30.42S

CITY           SKY/WX    TMP DP  RH WIND       PRES   REMARKS
JACKSON        FAIR      51  25  36 NE9       30.40F
LAMBERTVILLE   FAIR      51  28  40 E10       30.41R
LANSING        FAIR      53  25  33 SE9       30.42S
LAPEER         FAIR      51  26  36 CALM      30.44S
MASON          FAIR      53  21  29 E6        30.42S
MONROE         FAIR      50  24  35 E10G20    30.41S
MT. CLEMENS    MOSUNNY   46  31  54 E6        30.43S
PONTIAC        FAIR      52  25  35 E9        30.42S
PORT HOPE        N/A     45  33  63 NE3       30.44R
PORT HURON     FAIR      52  27  37 E6        30.46S
TRI CITIES     FAIR      52  30  43 CALM      30.44S
MIDLAND        FAIR      50  32  51 CALM      30.43S
TROY           FAIR      50  23  35 E7        30.45S
SAGINAW HB     FAIR      50  30  46 CALM      30.43S
$$
MIZ043>046-050>051-056>058-064>065-071>073-077>080-221500-
SOUTHWEST LOWER MICHIGAN

CITY           SKY/WX    TMP DP  RH WIND       PRES   REMARKS
BATTLE CREEK   FAIR      50  24  36 SE8       30.41R
BENTON HARBOR  FAIR      54  22  28 E13       30.39S
BIG RAPIDS     FAIR      46  26  45 CALM      30.41S
COLDWATER      FAIR      51  23  32 E12G18    30.40R
FREMONT        FAIR      51  17  25 E3        30.41R
HOLLAND        FAIR      52  28  39 SE6       30.42R
GRAND RAPIDS   FAIR      53  25  33 SE8       30.41R
IONIA          FAIR      51  28  40 SE6       30.41S
KALAMAZOO      FAIR      52  22  30 SE5       30.41R
LUDINGTON      FAIR      49  26  41 CALM      30.41R
MARSHALL       FAIR      51  23  32 E6        30.41R
MOUNT PLEASANT FAIR      48  34  58 CALM      30.42S
MUSKEGON       FAIR      54  28  36 SE7       30.41R
SOUTH HAVEN    FAIR      53  19  26 SE8       30.41R
$$
MIZ016>042-221500-
NORTHERN LOWER MICHIGAN

CITY           SKY/WX    TMP DP  RH WIND       PRES   REMARKS
ALPENA         FAIR      44  28  53 CALM      30.45S
BEAVER ISLAND  FAIR      51  20  29 E3        30.43S
BELLAIRE       FAIR      42  22  44 CALM      30.44S
CADILLAC       FAIR      51  25  36 CALM      30.40S
CHARLEVOIX     FAIR      40  25  55 CALM      30.46S
FRANKFORT      FAIR      48  26  43 CALM      30.42S
GAYLORD        FAIR      48  22  35 CALM      30.42S
GRAYLING       FAIR      42  23  47 CALM      30.42S
HARBOR SPRINGS FAIR      47  18  30 E5        30.44S
HOUGHTON LAKE  FAIR      51  30  44 NE3       30.43S
MANISTEE       FAIR      47  26  44 E6        30.41F
OSCODA         FAIR      47  24  39 CALM      30.45S
PELLSTON       FAIR      45  21  38 CALM      30.44S
ROGERS CITY    FAIR      49  21  33 CALM      30.45S
TRAVERSE CITY  FAIR      44  26  49 CALM      30.43R
$$
MIZ007>008-015-221500-
EASTERN UPPER MICHIGAN

CITY           SKY/WX    TMP DP  RH WIND       PRES   REMARKS
KINROSS        FAIR      44  24  45 CALM      30.44S
MACKINAC ISLAN FAIR      46  20  36 CALM      30.44S
NEWBERRY       FAIR      44  21  40 S5        30.42S
S. S. MARIE    FAIR      44  23  43 CALM      30.43S
MUNISING         N/A     47  27  45 S7        30.40S
$$
MIZ004>006-011>014-085-221500-
CENTRAL UPPER MICHIGAN

CITY           SKY/WX    TMP DP  RH WIND       PRES   REMARKS
MANISTIQUE     FAIR      46  23  40 S3        30.42S
ESCANABA       FAIR      45  28  51 CALM      30.42S
MENOMINEE      FAIR      48  31  51 MISG      30.42S
SAWYER-GWINN   SUNNY     39  25  56 SW3       30.39S
$$
MIZ001>003-009>011-084-221500-
WESTERN UPPER MICHIGAN

CITY           SKY/WX    TMP DP  RH WIND       PRES   REMARKS
IRON MOUNTAIN  FAIR      44  23  43 S5        30.38S
HOUGHTON       FAIR      43  17  35 SE6       30.38R
COPPER HARBOR    N/A     50  12  21 VRB3      30.39S
IRONWOOD       FAIR      44  19  36 CALM      30.39R
$$

ABBREVIATIONS USED IN REMARKS
   TC - TEMPERATURE IN CELSIUS
  WCI - WIND CHILL INDEX
   HX - HEAT INDEX
  VSB - VISIBILITY





USA.gov is the U.S. government's official web portal to all federal, state and local government web resources and services.